Tianwen

operational
NORAD ID: 52390 Int'l Des: 2022-046 Owner: CGSTL Country: CN
LEOCIRCULARRETROGRADE

关于 Tianwen

正在加载描述...

实时位置

正在加载3D地球...

即将过境

高度历史

Altitude vs Time

uPlot chart will show altitude changes over time

两行轨道根数

1 52390U 22046C 26062.14146890 .00194252 00000-0 11954-2 0 9997
2 52390 97.4794 175.9561 0003099 237.1500 122.9467 15.76646628213899
Epoch: Mar 3, 2026 • Age: 37 hours

当前状态

高度 363.6 km
速度 7.69 km/s
星下点 -70.88°S, 151.63°W
发射日期 Apr 30, 2022
运行时间 3.8 years
类型 other

技术详情

分类 Payload
质量 43.00 kg
干质量 43.00 kg
总质量 43.00 kg
长度 1.50 m
直径 1.00 m
跨度 1.50 m
形状 Box
制造商 CGSTL
平台类型 JL-1
阶段状态 In Orbit
所有者/国家 CGSTL/CN

大型星座

Loading constellations...